THOR ABLESTAR DEB, 145

Orbit data source: Space-Track

THOR ABLESTAR DEB, 145 is space debris in LEO originally from a launch on Thu, 29 Jun 1961 UTC launched from the Air Force Eastern Test Range (AFETR). Debris objects in space refer to the collection of defunct objects orbiting the Earth. Examples of debris include non-operational satellites, rocket bodies, and fragments generated from explosions, collisions, or faulty payload assembly.

Loading next visibility...
THOR ABLESTAR DEB details
Identifier
145, 1961-015AF
Orbit
LEO
Last TLE update1 day ago
Origin
Flag of USUSAF SSD (US)
ManufacturerUnknown
MissionSpacecraft
Bus & MotorUnknown
MassUnknown
Launch date (UTC)
1961-06-29 (63 years ago)
Launch vehicleUnknown
Launch site
Air Force Eastern Test Range (AFETR)
Object type
Payload
Rocket body
Debris
Shape & HBRUnknown
Radar Cross SectionMedium (>0.1 m² and <1 m²)

Expand to show TLE details & history

TLE from 1 day ago
0 THOR ABLESTAR DEB
1 00145U 61015AF  24355.52041459  .00000718  00000-0  50521-3 0  9994
2 00145  66.9268 290.6483 0065340 332.5162  27.2473 14.02721469240446
Epoch: 2024-12-20T12:29Z
Definitive object data (Epoch: 2024-12-20T12:29:23.82Z)
Latitude-0.00004°
Longitude13.71429°
Altitude844.357 km
Speed7.452 km/s
True Right ascension19h 22m 35s
True Declination0° 00' 00"
Sunlit
Object was in daylight at TLE epoch
Visualization TLE readout
Latitude39.42568°
Longitude170.78549°
Altitude934.872 km
Speed7.365 km/s
Apparent Right ascension03h 14m 30s
Apparent Declination4° 04' 25"
Sunlit
Object is in full shadow
Visualization observer readout
Local Sidereal Time12:07:39
Azimuth304.191° NW
Elevation-28.616°
Doppler factor1
Orbital elements
Apogee altitude930.199 km
Perigee altitude835.313 km
Semi-major axis7,260.893 km
Eccentricity0.006534
Inclination66.9268°
RAAN290.6483°
Arg. of periapsis332.5162°
True anomaly27.5926°
Mean anomaly27.2473°
Eccentric anomaly27.4197°
Mean motion3.50799 °/min
BSTAR0.00050521
Orbital period102.62 mins
Loading maneuver chart data...

THOR ABLESTAR DEB Visibility forecast

Observer location: undefined°, undefined

Span
Click to sort rows by Start time (UTC) header in descending order
Start Az.
Max El. time (UTC)
Max El. Az.
Max El.
End time (UTC)
End Az.
11 mins2024-12-21 21:06:44.491Z196.212° SSW2024-12-21 21:11:44.491Z145.978° SSE41.953°2024-12-21 21:17:44.491Z34.371° NE
6 mins2024-12-21 22:55:44.491Z281.381° WNW2024-12-21 22:58:44.491Z321.564° NNW20.193°2024-12-21 23:01:44.491Z356.702° N
10 mins2024-12-22 06:06:44.491Z340.926° N2024-12-22 06:11:44.491Z66.201° ENE40.75°2024-12-22 06:16:44.491Z135.538° SSE
7 mins2024-12-22 07:53:44.491Z289.389° WNW2024-12-22 07:56:44.491Z252.438° W20.516°2024-12-22 08:00:44.491Z209.017° SW
|